TimeCST,TemperatureF,Dew PointF,Humidity,Sea Level PressureIn,VisibilityMPH,Wind Direction,Wind SpeedMPH,Gust SpeedMPH,PrecipitationIn,Events,Conditions,WindDirDegrees,DateUTC
12:15 AM,32.9,25.7,75,29.54,10.0,SW,12.7,19.6,N/A,,Overcast,230,2014-01-25 06:15:00
12:35 AM,32.7,28.4,84,29.54,10.0,WSW,13.8,26.5,N/A,,Overcast,240,2014-01-25 06:35:00
12:55 AM,32.9,28.9,85,29.54,10.0,WSW,15.0,-,N/A,,Overcast,240,2014-01-25 06:55:00
1:15 AM,33.6,29.3,84,29.53,10.0,WSW,16.1,20.7,N/A,,Overcast,250,2014-01-25 07:15:00
1:35 AM,34.2,30.0,85,29.54,10.0,West,18.4,23.0,N/A,Snow,Light Snow,260,2014-01-25 07:35:00
1:55 AM,33.8,31.6,92,29.54,10.0,West,16.1,-,N/A,,Overcast,270,2014-01-25 07:55:00
2:15 AM,33.8,32.2,94,29.54,10.0,West,15.0,24.2,N/A,,Overcast,270,2014-01-25 08:15:00
2:35 AM,34.5,32.4,92,29.55,10.0,West,17.3,24.2,N/A,,Overcast,280,2014-01-25 08:35:00
2:55 AM,34.5,32.0,90,29.55,10.0,WNW,18.4,25.3,N/A,,Overcast,290,2014-01-25 08:55:00
3:15 AM,34.5,29.8,83,29.56,10.0,WNW,19.6,32.2,N/A,,Mostly Cloudy,300,2014-01-25 09:15:00
3:35 AM,33.8,29.3,84,29.57,10.0,WNW,18.4,24.2,N/A,,Mostly Cloudy,290,2014-01-25 09:35:00
3:55 AM,33.3,29.7,87,29.57,10.0,WNW,18.4,24.2,N/A,,Overcast,290,2014-01-25 09:55:00
4:15 AM,32.9,28.2,83,29.58,10.0,WNW,19.6,25.3,N/A,,Overcast,290,2014-01-25 10:15:00
4:35 AM,32.0,27.0,82,29.59,10.0,WNW,20.7,25.3,N/A,,Scattered Clouds,290,2014-01-25 10:35:00
4:55 AM,31.6,26.2,80,29.59,10.0,West,13.8,25.3,N/A,,Scattered Clouds,280,2014-01-25 10:55:00
5:15 AM,31.6,27.1,83,29.60,10.0,WNW,16.1,23.0,N/A,,Overcast,290,2014-01-25 11:15:00
5:35 AM,32.0,27.9,85,29.60,10.0,West,16.1,21.9,N/A,,Overcast,280,2014-01-25 11:35:00
5:55 AM,32.0,27.7,84,29.60,10.0,WNW,23.0,28.8,N/A,,Mostly Cloudy,290,2014-01-25 11:55:00
6:15 AM,32.0,23.4,70,29.62,10.0,WNW,23.0,35.7,N/A,,Scattered Clouds,300,2014-01-25 12:15:00
6:35 AM,30.9,20.5,65,29.64,10.0,WNW,24.2,33.4,N/A,,Clear,300,2014-01-25 12:35:00
6:55 AM,29.1,18.3,64,29.65,10.0,WNW,24.2,34.5,N/A,,Clear,290,2014-01-25 12:55:00
7:15 AM,27.3,15.4,61,29.66,10.0,WNW,25.3,35.7,N/A,,Clear,290,2014-01-25 13:15:00
7:35 AM,25.9,14.9,63,29.68,10.0,WNW,18.4,26.5,N/A,,Clear,300,2014-01-25 13:35:00
7:55 AM,24.6,10.0,54,29.70,10.0,NW,20.7,32.2,N/A,,Clear,310,2014-01-25 13:55:00
8:15 AM,23.9,8.1,51,29.71,10.0,NW,24.2,31.1,N/A,,Clear,310,2014-01-25 14:15:00
8:35 AM,23.5,9.9,56,29.73,10.0,WNW,17.3,24.2,N/A,,Clear,290,2014-01-25 14:35:00
8:55 AM,22.1,3.6,45,29.74,10.0,NW,26.5,34.5,N/A,,Clear,310,2014-01-25 14:55:00
9:15 AM,21.2,4.3,48,29.75,10.0,NW,21.9,27.6,N/A,,Clear,310,2014-01-25 15:15:00
9:35 AM,21.4,6.8,53,29.76,10.0,WNW,19.6,28.8,N/A,,Clear,300,2014-01-25 15:35:00
9:55 AM,20.1,6.3,55,29.77,10.0,WNW,31.1,38.0,N/A,,Clear,290,2014-01-25 15:55:00
10:15 AM,19.0,3.7,51,29.80,10.0,WNW,24.2,33.4,N/A,,Clear,300,2014-01-25 16:15:00
10:35 AM,19.0,2.7,49,29.81,10.0,NW,24.2,29.9,N/A,,Clear,310,2014-01-25 16:35:00
10:55 AM,18.3,1.4,48,29.82,10.0,NW,19.6,33.4,N/A,,Clear,310,2014-01-25 16:55:00
11:15 AM,18.9,3.7,52,29.83,10.0,NW,23.0,29.9,N/A,,Clear,310,2014-01-25 17:15:00
11:35 AM,19.0,4.6,54,29.83,10.0,NW,20.7,28.8,N/A,,Clear,310,2014-01-25 17:35:00
11:55 AM,18.5,1.2,47,29.84,10.0,NW,21.9,38.0,N/A,,Clear,320,2014-01-25 17:55:00
12:15 PM,18.5,4.5,54,29.85,10.0,WNW,18.4,27.6,N/A,,Clear,300,2014-01-25 18:15:00
12:35 PM,18.5,3.2,51,29.85,10.0,WNW,27.6,35.7,N/A,,Clear,290,2014-01-25 18:35:00
12:55 PM,17.8,1.6,49,29.86,10.0,NW,19.6,32.2,N/A,,Clear,310,2014-01-25 18:55:00
1:15 PM,18.3,4.6,55,29.86,10.0,WNW,23.0,32.2,N/A,,Clear,290,2014-01-25 19:15:00
1:35 PM,18.1,2.8,51,29.85,10.0,WNW,21.9,32.2,N/A,,Clear,290,2014-01-25 19:35:00
1:55 PM,18.1,2.5,51,29.86,10.0,WNW,21.9,32.2,N/A,,Clear,300,2014-01-25 19:55:00
2:15 PM,18.5,4.6,55,29.86,10.0,WNW,21.9,27.6,N/A,,Clear,300,2014-01-25 20:15:00
2:35 PM,17.6,2.5,52,29.88,10.0,WNW,21.9,31.1,N/A,,Clear,300,2014-01-25 20:35:00
2:55 PM,17.6,3.9,55,29.89,10.0,WNW,18.4,25.3,N/A,,Clear,300,2014-01-25 20:55:00
3:15 PM,17.4,3.2,54,29.91,10.0,WNW,21.9,26.5,N/A,,Clear,300,2014-01-25 21:15:00
3:35 PM,16.9,3.0,55,29.91,10.0,WNW,19.6,26.5,N/A,,Clear,290,2014-01-25 21:35:00
3:55 PM,16.5,1.6,52,29.90,10.0,WNW,17.3,29.9,N/A,,Clear,300,2014-01-25 21:55:00
4:15 PM,16.2,2.3,54,29.91,10.0,WNW,20.7,29.9,N/A,,Clear,290,2014-01-25 22:15:00
4:35 PM,15.8,2.5,56,29.91,10.0,WNW,13.8,-,N/A,,Clear,290,2014-01-25 22:35:00
4:55 PM,15.1,3.9,61,29.91,10.0,WNW,12.7,-,N/A,,Clear,290,2014-01-25 22:55:00
5:15 PM,14.7,3.4,61,29.93,10.0,WNW,15.0,-,N/A,,Clear,290,2014-01-25 23:15:00
5:35 PM,14.0,3.4,63,29.93,10.0,WNW,12.7,-,N/A,,Clear,290,2014-01-25 23:35:00
5:55 PM,13.8,2.8,62,29.93,10.0,WNW,10.4,-,N/A,,Clear,290,2014-01-25 23:55:00
6:15 PM,12.2,3.6,68,29.93,10.0,West,5.8,-,N/A,,Clear,280,2014-01-26 00:15:00
6:35 PM,10.9,3.0,70,29.93,10.0,WNW,3.5,-,N/A,,Clear,290,2014-01-26 00:35:00
6:55 PM,10.0,3.2,74,29.93,10.0,WNW,4.6,-,N/A,,Clear,290,2014-01-26 00:55:00
7:15 PM,9.1,2.5,74,29.92,10.0,SW,3.5,-,N/A,,Clear,230,2014-01-26 01:15:00
7:35 PM,10.4,2.3,70,29.93,10.0,WSW,4.6,-,N/A,,Clear,240,2014-01-26 01:35:00
7:55 PM,10.6,2.1,69,29.92,10.0,WSW,5.8,-,N/A,,Clear,250,2014-01-26 01:55:00
8:15 PM,11.7,3.2,69,29.92,10.0,West,4.6,-,N/A,,Scattered Clouds,260,2014-01-26 02:15:00
9:15 PM,13.1,5.9,73,29.88,10.0,SSW,3.5,-,N/A,,Mostly Cloudy,200,2014-01-26 03:15:00
9:35 PM,13.6,7.7,77,29.88,10.0,SSW,3.5,-,N/A,,Mostly Cloudy,200,2014-01-26 03:35:00
9:55 PM,14.0,7.0,74,29.85,10.0,South,3.5,-,N/A,,Mostly Cloudy,170,2014-01-26 03:55:00
10:15 PM,14.2,7.2,74,29.84,10.0,Calm,Calm,-,N/A,,Overcast,0,2014-01-26 04:15:00
10:35 PM,14.7,7.5,73,29.82,10.0,SE,3.5,-,N/A,,Overcast,140,2014-01-26 04:35:00
10:55 PM,14.9,7.9,74,29.83,10.0,SSE,3.5,-,N/A,,Overcast,160,2014-01-26 04:55:00
11:15 PM,15.3,7.7,72,29.81,10.0,SE,3.5,-,N/A,,Overcast,140,2014-01-26 05:15:00
11:35 PM,15.6,8.6,74,29.80,10.0,SSE,6.9,-,N/A,,Overcast,160,2014-01-26 05:35:00
11:55 PM,15.8,8.6,73,29.78,10.0,SSE,6.9,-,N/A,,Overcast,150,2014-01-26 05:55:00